Temp
77 77 73 67 54 52 47 53 59 63 66 72 76 73 70 69 68 59 71 76 75 76 79 80 81 82 82 82 82 82 81 81 81 81 81 81 80 81 80 80 80 80 80 80 80 80 80 81 80
73 78 69 61 49 44 47 56 59 64 72 75 76 72 68 66 72 68 70 76 77 78 79 80 81 82 82 82 81 81 81 81 81 81 81 81 80 80 80 80 80 80 80 80 79 79 80 80 80
74 77 62 55 49 45 47 57 62 71 74 76 72 74 69 68 74 71 74 77 78 78 79 80 81 81 81 81 81 81 81 81 81 81 81 81 80 81 80 80 79 79 79 79 79 79 80 79 79
68 65 61 51 48 54 57 61 66 69 74 72 68 67 72 71 71 73 77 78 77 77 78 80 81 81 81 81 81 81 81 81 81 81 81 81 80 80 80 79 79 78 78 78 79 79 79 79 79
64 59 49 46 48 55 59 64 67 67 68 68 70 63 65 69 72 71 76 78 75 75 78 80 81 81 81 81 81 80 80 80 80 80 80 80 80 80 79 79 78 78 78 78 78 79 79 79 78
57 56 45 42 49 57 60 65 65 66 64 66 66 63 63 68 67 67 71 73 78 76 78 79 80 80 80 80 80 80 80 80 80 80 80 80 79 80 80 78 78 78 78 78 78 79 79 79 78
55 50 45 46 49 54 61 67 63 64 64 65 66 61 64 67 67 67 67 71 77 77 77 77 78 79 80 80 80 79 80 80 80 79 79 79 79 79 79 78 77 77 77 78 78 79 78 78 77
57 53 46 46 49 51 62 65 68 65 65 72 70 60 60 67 68 69 69 67 71 75 76 74 75 77 75 76 79 79 79 79 79 79 79 78 77 78 78 77 77 77 77 77 78 78 78 77 76
62 47 43 48 52 55 63 61 66 70 65 68 68 65 66 67 67 67 67 69 67 67 67 74 73 73 73 74 76 78 79 79 78 78 77 76 72 73 73 75 77 77 77 77 77 78 77 76 75
54 45 49 58 58 57 61 60 62 62 60 62 65 65 67 66 62 63 64 64 65 65 66 61 72 72 72 76 74 74 76 74 71 73 70 69 70 71 73 74 76 76 77 77 77 77 74 70 68
55 50 57 61 63 64 61 61 63 58 56 60 62 64 66 64 63 62 63 66 66 65 64 61 68 71 71 74 71 72 71 69 69 69 69 69 71 71 69 68 67 65 71 65 68 66 64 64 65
52 60 61 62 65 63 61 64 61 60 61 66 66 64 64 63 63 63 63 63 62 62 61 61 69 71 71 70 70 71 70 69 69 69 68 69 68 66 63 63 61 61 61 61 61 61 62 64 64
55 59 64 64 63 62 64 60 59 61 65 66 68 68 64 65 66 66 67 67 65 62 62 66 68 68 69 70 70 71 70 70 69 68 70 69 68 66 63 61 59 60 60 60 59 61 63 64 63
59 60 61 63 63 62 61 60 60 62 64 64 64 62 62 63 64 65 66 66 65 65 69 70 67 66 69 69 69 71 71 69 68 68 71 70 69 67 64 60 59 59 60 60 60 60 64 63 64
62 55 58 59 60 60 61 56 54 62 62 59 58 58 60 62 65 63 66 68 67 67 67 68 68 69 69 68 66 66 71 68 68 70 71 71 68 67 65 62 59 59 59 61 60 60 63 62 64
54 52 45 57 59 60 57 46 57 59 58 55 55 53 58 60 62 63 66 67 70 67 67 67 70 70 68 68 65 66 68 70 69 70 73 72 70 68 64 63 60 60 59 60 60 59 59 59 61
48 40 44 51 60 58 54 46 54 57 57 54 53 55 57 58 61 63 65 65 67 67 67 67 68 69 68 66 67 68 71 68 67 68 71 73 70 69 66 63 60 60 59 59 61 57 62 59 56
41 41 46 45 54 55 50 47 52 55 55 52 52 51 52 55 57 62 63 65 66 66 67 67 66 67 66 66 67 66 67 66 65 64 70 70 70 68 66 61 60 60 58 57 58 59 57 58 58
48 45 44 49 56 51 49 48 50 53 52 51 51 50 53 55 58 60 62 63 63 64 64 63 63 63 65 65 65 64 66 65 64 66 69 66 67 66 63 60 59 59 60 58 60 58 58 56 56
49 44 44 50 56 52 49 46 50 51 50 50 51 50 51 53 54 56 59 60 60 61 63 63 63 63 62 62 62 64 64 64 63 63 64 64 64 65 63 61 59 59 58 59 59 59 56 55 57
47 45 44 46 52 52 48 42 45 51 51 53 52 52 52 51 52 53 57 57 58 58 60 62 64 63 62 63 63 63 64 63 60 61 59 61 64 63 62 61 60 59 58 58 59 59 58 56 56
43 53 53 51 45 37 47 33 40 46 48 48 48 52 51 53 53 53 55 56 57 58 61 61 62 61 61 62 61 61 60 59 57 56 58 57 58 59 60 60 59 58 57 57 58 61 59 60 57
49 53 51 50 44 39 42 35 37 43 43 44 50 51 52 53 54 54 53 57 59 60 59 60 61 60 58 59 62 61 59 56 55 55 55 54 55 55 56 56 56 57 57 59 60 60 60 60 58
56 50 46 44 41 33 40 37 35 38 40 43 50 50 51 52 53 56 57 58 60 61 60 60 61 58 58 58 60 60 56 55 54 54 53 53 53 53 54 55 54 54 56 56 57 59 60 59 58
50 40 26 30 27 29 42 35 38 43 44 47 48 49 50 51 51 53 57 58 59 60 62 60 58 58 57 58 59 59 58 57 55 55 53 52 52 53 53 54 53 53 54 55 55 56 57 57 55
45 41 26 21 22 26 41 30 39 47 47 48 51 50 51 50 51 51 55 58 60 60 60 59 58 57 58 58 57 57 57 56 57 56 54 53 53 53 53 54 54 55 55 54 54 53 54 55 55
44 38 44 32 32 28 33 40 46 47 45 46 48 49 48 49 50 50 53 55 56 58 58 58 57 57 57 57 56 55 55 55 55 55 55 54 53 54 53 54 54 54 54 54 54 53 54 55 55
46 50 37 34 23 24 31 33 35 42 43 45 47 47 48 49 49 50 51 52 53 55 56 56 55 54 55 56 56 56 55 56 56 55 54 55 54 54 53 53 53 53 54 54 54 53 54 54 53
45 42 42 39 35 29 27 33 42 44 45 42 46 47 48 48 48 48 50 52 52 53 53 53 53 53 53 53 54 54 54 54 54 54 53 53 54 54 54 53 53 52 52 53 53 53 53 53 53
48 45 42 33 33 34 31 34 48 46 46 45 44 49 48 48 48 49 50 50 50 51 51 52 53 52 52 53 53 53 54 53 53 52 53 53 53 53 53 53 52 52 52 52 52 53 54 53 53
MSLP
1012.29 1012.32 1012.39 1012.92 1014.33 1014.61 1014.02 1012.68 1011.20 1009.99 1008.65 1007.17 1006.47 1006.18 1006.81 1007.44 1008.21 1009.48 1008.92 1009.42 1009.60 1010.01 1010.38 1010.72 1011.27 1011.78 1012.15 1012.46 1012.94 1013.32 1013.75 1014.18 1014.51 1014.78 1014.95 1015.12 1015.36 1015.47 1015.72 1015.87 1016.02 1016.10 1016.16 1016.29 1016.33 1016.25 1016.13 1016.10 1016.14
1012.38 1012.31 1012.73 1013.54 1014.56 1014.94 1013.75 1012.13 1011.25 1010.06 1008.75 1007.38 1006.63 1006.79 1007.30 1007.97 1008.18 1008.93 1009.37 1009.62 1009.77 1010.21 1010.32 1010.70 1011.11 1011.65 1012.07 1012.51 1012.90 1013.29 1013.71 1014.19 1014.62 1014.96 1015.16 1015.26 1015.51 1015.69 1015.93 1016.10 1016.28 1016.39 1016.47 1016.61 1016.66 1016.59 1016.46 1016.41 1016.58
1012.44 1012.49 1013.47 1014.12 1014.69 1014.58 1013.59 1012.00 1010.93 1009.49 1008.69 1007.93 1007.14 1007.01 1007.90 1008.45 1008.24 1008.49 1008.47 1009.33 1009.77 1010.40 1010.66 1010.69 1011.07 1011.52 1011.98 1012.46 1012.90 1013.32 1013.69 1014.09 1014.59 1015.01 1015.35 1015.44 1015.65 1015.87 1016.14 1016.33 1016.53 1016.71 1016.79 1016.89 1016.97 1016.94 1016.90 1016.93 1016.89
1012.62 1013.20 1014.20 1014.52 1014.83 1014.06 1013.17 1011.95 1011.01 1009.93 1008.26 1008.29 1008.21 1008.51 1009.03 1010.00 1009.46 1009.10 1009.47 1009.50 1010.01 1010.46 1010.77 1010.94 1011.11 1011.48 1011.94 1012.45 1012.89 1013.33 1013.73 1014.09 1014.45 1014.91 1015.31 1015.50 1015.73 1016.00 1016.34 1016.60 1016.76 1016.97 1017.11 1017.12 1017.24 1017.27 1017.38 1017.30 1017.40
1013.21 1014.24 1015.02 1015.21 1014.88 1013.91 1012.92 1011.98 1011.06 1010.21 1009.49 1009.06 1008.58 1009.35 1010.13 1010.68 1010.60 1010.38 1010.32 1010.67 1010.79 1010.84 1010.83 1010.96 1011.24 1011.53 1011.90 1012.33 1012.75 1013.24 1013.63 1014.02 1014.40 1014.73 1015.17 1015.50 1015.80 1016.08 1016.44 1016.79 1017.00 1017.15 1017.32 1017.35 1017.46 1017.56 1017.54 1017.61 1017.77
1014.17 1014.90 1015.64 1015.60 1014.82 1013.66 1012.64 1011.92 1011.07 1010.44 1009.93 1009.80 1009.76 1009.88 1010.70 1011.08 1010.97 1011.44 1011.36 1011.09 1011.15 1011.27 1011.04 1011.10 1011.36 1011.68 1011.97 1012.30 1012.65 1013.10 1013.57 1014.03 1014.39 1014.69 1015.05 1015.36 1015.85 1016.16 1016.43 1016.97 1017.20 1017.39 1017.60 1017.72 1017.67 1017.66 1017.66 1017.84 1018.14
1014.27 1015.23 1015.57 1015.29 1014.63 1013.62 1012.64 1011.73 1011.33 1011.05 1010.45 1010.29 1010.55 1010.55 1010.92 1010.95 1011.18 1011.24 1012.25 1011.46 1011.46 1011.13 1011.39 1011.36 1011.53 1011.74 1012.17 1012.46 1012.74 1013.15 1013.48 1014.02 1014.42 1014.76 1015.08 1015.30 1015.82 1016.21 1016.61 1017.00 1017.23 1017.56 1017.88 1018.08 1017.98 1018.01 1018.13 1018.27 1018.50
1014.03 1015.04 1015.38 1014.88 1014.40 1013.59 1012.76 1012.20 1011.61 1011.53 1010.89 1010.52 1010.41 1010.77 1010.85 1010.82 1011.54 1011.35 1011.30 1012.99 1012.52 1011.89 1011.61 1011.61 1011.65 1011.75 1012.14 1012.63 1012.90 1013.32 1013.64 1014.05 1014.47 1014.82 1015.14 1015.52 1015.92 1016.27 1016.68 1017.25 1017.32 1017.53 1017.96 1018.35 1018.36 1018.37 1018.53 1018.76 1018.95
1013.73 1015.02 1015.32 1014.57 1014.01 1013.50 1012.72 1012.37 1011.88 1011.58 1011.55 1010.98 1010.93 1011.05 1011.05 1011.12 1011.27 1011.84 1011.44 1012.43 1011.84 1013.22 1012.83 1012.08 1011.71 1011.93 1012.10 1012.61 1012.99 1013.26 1013.57 1014.02 1014.51 1014.89 1015.18 1015.67 1016.24 1016.55 1016.90 1017.30 1017.51 1017.70 1017.97 1018.38 1018.70 1018.86 1018.96 1019.17 1019.50
1014.08 1015.04 1014.69 1013.85 1013.41 1013.03 1012.66 1012.51 1012.09 1011.91 1011.80 1011.40 1011.15 1011.02 1010.91 1011.17 1011.55 1011.90 1011.68 1011.62 1011.99 1012.24 1013.65 1013.48 1011.28 1012.29 1012.29 1012.40 1012.99 1013.31 1013.73 1014.16 1014.63 1015.10 1015.61 1015.96 1016.38 1016.72 1017.06 1017.42 1017.54 1017.69 1018.15 1018.35 1018.69 1019.17 1019.55 1019.78 1020.13
1013.84 1014.23 1013.72 1013.15 1012.78 1012.50 1012.26 1012.09 1012.03 1012.06 1011.98 1011.61 1011.34 1011.09 1011.03 1011.23 1011.30 1011.97 1012.00 1011.92 1011.41 1012.17 1012.41 1011.50 1013.82 1012.27 1012.42 1012.69 1013.34 1013.71 1014.07 1014.47 1014.94 1015.31 1015.69 1016.21 1016.54 1016.94 1017.40 1017.68 1017.87 1017.96 1018.26 1018.76 1019.01 1019.63 1020.12 1020.35 1020.55
1013.59 1013.35 1013.22 1012.71 1012.29 1012.32 1012.12 1011.91 1012.00 1011.87 1011.66 1011.09 1011.04 1011.05 1011.06 1011.09 1011.11 1011.28 1011.25 1011.21 1011.16 1012.31 1013.73 1010.85 1011.71 1012.89 1012.07 1012.82 1013.23 1013.73 1014.27 1014.67 1014.95 1015.49 1015.82 1016.15 1016.75 1017.24 1017.71 1018.03 1018.27 1018.35 1018.70 1019.06 1019.39 1020.18 1020.42 1020.75 1020.87
1013.34 1013.09 1012.78 1012.34 1012.18 1012.05 1011.97 1011.97 1012.21 1011.93 1011.33 1011.14 1011.07 1011.11 1011.55 1011.46 1011.22 1010.78 1010.15 1010.23 1010.77 1011.55 1012.37 1012.95 1012.17 1012.13 1013.26 1012.97 1012.97 1013.49 1013.96 1014.59 1014.99 1015.47 1015.86 1016.16 1016.76 1017.34 1017.86 1018.21 1018.56 1018.72 1019.00 1019.22 1019.78 1020.00 1020.47 1020.97 1021.42
1013.11 1013.05 1012.68 1012.03 1011.72 1011.91 1012.03 1011.98 1012.08 1012.28 1012.00 1011.74 1011.83 1012.04 1011.82 1011.66 1011.45 1010.86 1010.33 1010.03 1010.38 1010.47 1010.91 1011.75 1012.29 1012.97 1013.18 1013.24 1012.96 1013.14 1013.75 1014.32 1014.81 1015.37 1015.73 1016.18 1016.64 1017.14 1017.81 1018.34 1018.77 1019.11 1019.12 1019.58 1019.86 1020.14 1020.54 1021.22 1021.52
1013.10 1013.19 1012.58 1011.99 1011.75 1011.81 1011.97 1012.42 1012.84 1012.70 1012.47 1012.60 1012.70 1012.64 1012.33 1012.08 1011.23 1011.39 1010.80 1010.22 1009.85 1010.12 1010.74 1011.35 1011.79 1012.39 1013.24 1011.71 1013.49 1013.70 1013.88 1014.56 1014.76 1014.99 1015.44 1015.92 1016.53 1017.07 1017.61 1018.20 1018.86 1019.10 1019.32 1019.66 1020.06 1020.55 1020.78 1021.39 1021.84
1013.55 1013.76 1013.53 1012.66 1012.13 1011.99 1012.48 1012.96 1013.36 1013.34 1012.76 1013.38 1013.26 1013.04 1012.75 1012.53 1012.11 1011.42 1010.70 1009.95 1009.37 1009.50 1009.62 1010.63 1010.73 1010.63 1011.95 1013.40 1013.85 1013.32 1014.02 1014.42 1014.75 1014.70 1015.10 1015.67 1016.19 1016.70 1017.46 1018.06 1018.71 1018.95 1019.46 1019.77 1020.16 1020.76 1021.34 1021.86 1022.48
1014.65 1014.58 1014.17 1013.36 1012.47 1012.39 1012.88 1013.54 1014.09 1013.93 1013.48 1013.63 1013.57 1013.23 1012.83 1012.85 1012.45 1011.63 1011.10 1010.19 1009.45 1008.93 1009.51 1009.45 1009.99 1010.28 1011.23 1012.11 1013.06 1013.60 1013.75 1014.13 1014.41 1014.67 1014.88 1015.43 1016.04 1016.44 1017.06 1017.99 1018.62 1019.04 1019.51 1019.93 1020.39 1021.24 1021.32 1022.15 1022.78
1014.98 1014.90 1014.39 1013.83 1013.03 1012.79 1013.32 1014.00 1014.40 1014.33 1014.12 1014.30 1014.13 1013.81 1013.48 1012.91 1013.07 1012.16 1011.52 1010.49 1009.68 1008.86 1009.05 1009.39 1010.15 1011.23 1011.56 1012.05 1012.89 1013.59 1013.46 1013.88 1014.30 1014.56 1014.70 1015.45 1016.04 1016.43 1017.00 1017.99 1018.72 1019.20 1019.76 1020.26 1020.59 1021.07 1021.90 1022.18 1022.71
1014.42 1014.62 1014.49 1013.71 1013.17 1013.36 1013.62 1014.24 1014.59 1014.59 1014.43 1014.47 1014.47 1014.18 1013.85 1013.07 1012.51 1012.71 1011.83 1011.13 1009.78 1009.13 1009.72 1009.92 1010.19 1011.10 1011.50 1012.20 1013.01 1013.65 1013.73 1013.99 1014.31 1014.28 1014.53 1015.99 1016.03 1016.50 1017.10 1017.93 1018.61 1019.16 1019.75 1020.26 1020.56 1021.09 1021.77 1022.65 1022.91
1014.12 1014.34 1014.26 1013.77 1013.30 1013.58 1013.94 1014.65 1014.80 1014.84 1014.83 1014.79 1014.93 1014.67 1014.29 1013.79 1012.73 1012.08 1011.80 1011.46 1010.74 1010.20 1010.56 1010.59 1010.74 1011.16 1011.94 1012.33 1013.25 1013.59 1014.01 1014.61 1014.69 1014.84 1015.23 1015.63 1016.30 1016.66 1017.06 1017.61 1018.50 1019.00 1019.64 1020.22 1020.50 1020.89 1022.07 1022.83 1023.05
1013.87 1014.11 1014.17 1014.20 1013.76 1013.57 1014.29 1015.08 1015.16 1014.98 1015.06 1014.94 1015.07 1015.02 1014.56 1014.21 1013.48 1012.29 1011.55 1011.95 1011.15 1010.52 1010.64 1011.06 1011.51 1011.68 1011.95 1012.50 1013.01 1013.28 1013.96 1014.94 1015.53 1015.58 1016.03 1016.51 1016.96 1016.85 1017.20 1017.70 1018.38 1019.04 1019.37 1019.96 1020.20 1020.54 1021.31 1022.50 1022.97
1013.71 1013.48 1013.81 1014.14 1014.63 1014.95 1014.90 1015.78 1015.60 1015.55 1015.51 1015.46 1015.52 1015.09 1014.77 1014.13 1013.51 1012.71 1011.76 1011.50 1011.06 1011.02 1010.84 1010.76 1011.45 1011.68 1012.25 1012.48 1012.48 1012.79 1013.25 1015.00 1016.43 1017.07 1017.18 1017.16 1017.40 1017.71 1017.56 1017.98 1018.54 1019.05 1019.52 1019.89 1020.07 1020.44 1020.95 1021.69 1022.42
1013.48 1013.48 1014.01 1014.33 1015.18 1015.80 1015.87 1016.48 1015.92 1016.21 1016.07 1015.94 1015.76 1015.31 1014.81 1014.05 1013.45 1012.59 1011.80 1011.27 1010.73 1010.72 1011.08 1011.25 1011.70 1012.42 1012.65 1012.42 1012.68 1013.08 1013.90 1014.50 1016.62 1017.27 1018.08 1018.33 1018.57 1018.73 1018.52 1018.63 1019.11 1019.54 1019.83 1019.96 1020.04 1020.58 1021.11 1021.73 1022.09
1013.30 1013.96 1014.80 1015.35 1016.34 1016.94 1016.70 1016.95 1016.55 1016.84 1017.02 1016.60 1016.15 1015.69 1015.15 1014.49 1013.71 1012.50 1011.32 1010.90 1010.77 1010.76 1011.28 1011.79 1012.34 1012.82 1012.37 1012.42 1012.83 1013.32 1013.55 1014.98 1016.30 1017.54 1017.76 1018.93 1018.77 1019.17 1019.23 1019.64 1019.69 1020.11 1020.38 1020.84 1020.99 1021.39 1021.43 1022.01 1022.57
1013.79 1015.23 1016.43 1017.45 1017.93 1017.84 1017.20 1017.35 1016.68 1016.83 1017.18 1017.34 1016.77 1016.29 1015.67 1015.14 1014.26 1013.20 1012.12 1011.68 1011.56 1011.48 1011.74 1012.39 1012.80 1013.26 1013.42 1013.18 1013.39 1013.91 1014.59 1015.18 1015.47 1016.64 1017.56 1018.74 1019.54 1020.15 1020.60 1020.05 1020.63 1020.45 1020.86 1021.40 1021.43 1021.52 1022.16 1022.71 1023.42
1014.22 1015.53 1017.16 1018.46 1019.31 1018.98 1017.52 1017.36 1016.60 1016.78 1017.22 1017.47 1017.21 1016.80 1016.29 1015.52 1014.91 1014.37 1013.66 1012.91 1012.54 1012.42 1012.70 1013.12 1013.42 1013.97 1014.21 1014.28 1014.77 1015.19 1015.99 1016.34 1016.78 1017.07 1017.50 1017.88 1019.25 1020.17 1020.19 1020.45 1021.05 1021.36 1021.37 1021.75 1021.81 1022.22 1022.94 1022.95 1023.42
1014.31 1015.51 1016.56 1018.24 1019.26 1019.35 1018.08 1017.16 1016.70 1016.80 1017.48 1017.66 1017.39 1017.16 1016.90 1016.57 1016.06 1015.42 1014.85 1014.20 1013.84 1013.70 1013.90 1014.17 1014.46 1014.79 1014.95 1015.31 1015.74 1016.15 1016.28 1017.01 1017.24 1017.92 1017.72 1018.39 1019.44 1020.17 1020.36 1020.98 1021.27 1021.61 1021.68 1022.17 1022.24 1022.80 1023.20 1023.27 1023.46
1013.92 1015.14 1016.53 1017.85 1019.04 1019.21 1018.17 1017.34 1016.75 1016.73 1017.38 1017.84 1017.71 1017.52 1017.36 1017.20 1017.05 1016.62 1016.06 1015.59 1015.27 1015.10 1015.19 1015.32 1015.62 1015.77 1015.81 1016.04 1016.31 1016.33 1016.75 1017.42 1017.55 1018.14 1017.92 1018.63 1019.70 1019.86 1020.61 1021.13 1021.49 1021.81 1022.08 1022.33 1022.69 1023.19 1023.07 1023.32 1023.61
1014.16 1014.85 1016.03 1017.17 1018.03 1018.68 1018.30 1016.98 1015.93 1016.41 1017.07 1017.81 1018.03 1017.81 1017.64 1017.44 1017.46 1017.29 1016.95 1016.66 1016.36 1016.27 1016.31 1016.44 1016.55 1016.61 1016.70 1016.81 1017.02 1017.19 1017.54 1017.67 1017.95 1018.43 1018.43 1019.63 1020.04 1020.11 1020.68 1021.36 1021.71 1022.19 1022.44 1022.61 1022.98 1023.11 1023.27 1023.42 1023.63
1013.52 1014.12 1015.33 1016.94 1017.74 1017.97 1017.92 1016.55 1015.69 1016.23 1016.90 1017.60 1017.92 1017.95 1017.92 1017.89 1017.85 1017.73 1017.60 1017.52 1017.41 1017.36 1017.41 1017.42 1017.47 1017.55 1017.88 1018.04 1018.13 1018.22 1018.68 1018.73 1018.94 1019.37 1019.81 1020.15 1020.55 1020.49 1020.98 1021.57 1022.14 1022.51 1022.71 1022.75 1023.15 1023.24 1023.48 1023.56 1023.94
Wind_Speed
6 3 2 4 5 4 4 6 3 8 11 5 5 4 5 3 3 4 1 8 14 18 17 17 23 21 21 21 21 22 21 19 18 17 16 16 17 18 18 18 18 17 17 17 16 16 17 17 20
3 2 4 2 5 1 6 5 5 5 10 8 5 5 2 1 3 7 8 9 18 15 16 15 23 21 21 22 21 21 21 20 18 17 16 17 18 18 18 18 17 17 17 17 16 17 19 20 21
3 1 4 4 3 5 5 3 4 16 10 9 5 6 2 0 2 11 5 16 18 15 14 15 22 22 22 22 21 21 20 19 18 17 16 17 19 18 18 18 18 17 17 17 16 17 19 20 21
3 4 4 3 4 6 5 8 8 14 15 6 3 6 4 12 5 3 12 17 16 14 13 17 22 22 22 22 22 21 20 19 18 18 17 17 19 19 18 17 17 17 16 17 17 17 16 19 21
4 3 3 0 4 6 6 7 7 13 6 6 2 2 3 5 10 12 8 11 11 11 11 16 22 23 22 22 22 22 21 19 17 17 17 16 18 20 19 17 16 16 16 17 16 15 15 18 22
4 3 3 2 4 6 5 7 6 5 1 2 4 2 3 3 10 9 10 3 11 10 11 14 20 22 22 22 22 23 22 20 18 16 16 15 20 21 19 17 16 15 15 15 16 17 18 23 22
5 4 3 3 4 6 4 12 7 8 6 5 3 2 4 4 6 7 8 9 6 12 11 11 13 17 20 20 21 22 21 20 18 17 16 18 20 20 20 18 17 15 14 14 16 19 22 23 22
5 4 2 2 3 5 4 8 4 8 5 2 2 1 3 1 5 6 7 8 13 5 11 10 10 12 12 12 20 20 20 19 17 17 15 18 19 20 19 17 17 16 14 13 15 18 19 22 21
3 4 1 2 3 6 5 6 1 5 5 3 7 3 4 5 7 3 8 9 4 7 12 7 10 9 9 9 13 19 20 18 17 14 18 15 8 10 12 12 16 15 15 14 14 17 20 22 21
5 3 4 4 3 4 3 1 6 5 7 3 4 2 3 4 3 5 5 6 4 9 10 12 11 10 9 10 11 10 11 8 6 8 8 7 9 8 9 11 15 15 14 15 15 16 17 13 7
4 5 5 6 5 4 4 7 2 3 5 7 9 5 4 3 5 8 7 7 12 7 10 21 24 10 10 9 6 4 4 5 5 8 8 8 8 7 5 4 4 4 9 3 5 8 5 7 6
0 5 4 5 4 5 5 4 6 3 10 8 8 4 4 7 7 8 11 8 7 5 12 3 9 5 10 8 8 7 6 5 6 7 9 8 6 6 4 3 4 4 3 5 4 4 4 6 7
3 3 4 6 9 5 5 6 4 8 14 7 8 7 3 7 9 7 12 11 10 12 15 19 11 5 6 10 8 8 8 7 8 7 8 8 8 7 4 4 4 4 3 3 4 4 7 8 7
2 4 8 8 8 3 4 3 2 6 8 12 12 10 9 8 8 8 6 11 15 16 19 16 10 14 9 3 6 9 7 8 8 7 8 9 8 8 6 5 4 4 3 3 3 5 9 6 8
5 6 8 3 3 4 2 4 2 6 4 11 11 9 9 11 13 9 9 8 12 15 8 17 11 11 7 7 2 2 6 5 7 9 9 10 8 9 8 6 5 5 4 6 5 6 8 7 5
4 4 5 7 2 1 3 6 5 9 9 9 8 8 9 11 10 14 14 12 7 8 16 17 14 16 16 9 6 4 4 6 6 8 8 12 10 10 8 6 5 5 5 5 5 5 6 6 7
6 2 4 6 4 3 3 2 5 6 8 9 9 12 14 13 14 15 14 15 15 10 12 15 10 12 15 11 4 11 9 7 5 6 7 11 11 11 9 6 5 6 5 5 6 2 8 7 4
4 4 5 5 4 2 2 2 4 6 8 7 8 9 9 11 6 13 14 14 13 4 9 6 9 9 11 11 8 5 7 2 4 5 6 7 8 10 9 6 6 5 5 5 4 6 3 5 6
2 3 4 4 3 2 2 3 2 4 6 9 9 9 11 13 9 8 10 10 14 8 6 9 13 7 8 5 9 3 6 5 1 4 12 6 8 9 9 6 6 6 7 6 6 4 6 3 3
1 2 4 6 5 4 4 2 3 4 1 3 8 11 11 13 15 13 13 8 10 10 3 9 10 11 6 4 2 3 3 2 1 3 6 7 3 7 9 9 6 7 6 6 5 6 3 3 1
2 4 3 5 6 3 5 2 4 5 3 5 7 9 12 10 12 13 15 7 8 9 3 8 9 8 8 10 7 5 6 5 2 4 5 3 4 3 7 7 7 6 5 5 5 6 8 4 2
3 7 5 3 3 2 3 5 3 5 9 4 7 12 11 13 11 9 12 9 8 3 3 9 10 10 6 6 5 5 8 5 4 5 3 5 8 3 6 6 6 6 4 6 4 4 6 5 5
8 3 6 3 3 2 4 4 6 5 7 10 15 14 14 14 13 13 11 8 8 3 5 4 11 7 6 6 6 8 10 10 6 8 7 8 7 6 7 7 6 5 3 4 7 7 6 3 4
5 2 7 5 3 2 4 4 5 4 4 7 12 13 14 14 15 14 8 4 3 8 8 9 13 7 7 8 7 12 16 15 11 8 9 4 7 6 8 6 7 6 7 6 6 6 9 8 8
8 6 3 5 5 5 1 3 7 2 4 5 11 11 13 12 14 15 15 9 8 9 9 8 9 8 6 10 10 8 11 14 18 14 8 9 5 2 3 8 7 7 8 6 6 9 9 7 6
1 5 6 6 2 5 4 2 6 4 6 3 6 8 10 13 12 15 12 10 10 10 11 10 9 9 8 9 9 8 8 5 6 7 8 8 6 5 6 7 7 6 7 5 7 6 4 6 4
1 2 3 6 3 3 3 2 3 4 3 3 7 7 9 10 12 14 13 13 12 11 10 11 10 10 9 9 7 7 7 7 7 7 7 7 7 6 7 7 7 5 6 5 5 4 2 1 1
2 5 2 3 2 2 4 3 5 4 4 3 5 6 6 8 9 10 10 10 10 11 11 12 11 11 10 10 8 9 9 8 9 6 8 6 7 8 8 7 6 5 4 4 4 4 3 4 2
1 1 1 3 4 4 1 6 6 6 5 7 1 1 3 6 7 7 8 8 9 10 10 10 10 12 10 10 9 9 8 8 9 7 8 6 6 7 6 5 5 4 4 4 4 4 4 5 4
4 5 5 5 4 1 3 7 3 7 8 7 5 2 3 6 6 6 7 8 8 9 9 9 9 10 8 7 8 9 8 8 8 8 7 7 8 7 7 6 5 4 4 4 4 4 4 5 5
Wind_Direction
325 309 100 52 56 62 257 261 276 312 340 298 290 107 152 119 159 220 131 155 138 155 162 165 157 157 156 151 147 142 139 135 134 131 127 120 120 113 109 106 103 100 98 95 89 83 76 81 77
335 323 51 90 97 102 268 250 286 257 295 283 314 111 73 120 146 113 120 164 150 158 161 162 156 158 156 152 148 141 141 139 137 135 131 126 127 117 113 109 106 102 98 96 90 82 81 88 82
320 251 89 126 159 192 242 261 282 306 304 298 355 52 123 50 355 157 168 152 151 157 164 162 157 158 155 153 145 144 143 142 142 138 137 132 127 121 116 112 109 105 102 99 97 89 83 92 90
43 18 22 106 232 267 250 291 307 306 304 50 320 43 22 5 5 345 142 147 150 157 164 169 160 156 152 150 149 147 147 146 146 145 146 143 136 127 119 114 111 109 106 104 102 96 88 91 89
34 55 71 207 256 261 282 276 283 281 299 328 346 347 55 13 354 30 112 143 152 156 164 166 163 159 156 154 154 151 150 149 150 150 152 151 140 130 124 118 115 112 111 110 105 97 92 99 95
43 90 76 234 253 287 290 314 291 329 320 295 342 31 134 176 50 4 14 127 164 159 168 165 167 165 160 160 160 155 151 151 152 152 154 155 143 134 129 125 119 116 113 114 111 98 87 103 100
116 91 201 230 246 295 355 330 28 329 318 6 154 68 289 139 118 82 15 25 191 165 171 171 171 168 167 166 161 158 150 152 152 154 155 145 141 137 133 132 126 120 116 118 117 106 94 102 100
107 95 242 260 325 276 339 336 335 6 334 251 205 99 320 198 126 106 69 7 15 245 177 173 174 168 171 168 161 158 150 152 153 156 157 143 143 140 134 135 130 127 124 124 124 113 100 107 100
86 63 263 265 18 279 312 354 230 295 354 346 345 9 327 100 88 101 167 211 97 338 359 222 174 164 155 159 162 158 151 152 154 158 146 133 135 131 121 139 135 132 130 131 132 116 108 108 103
92 109 240 216 250 248 268 317 300 6 338 319 316 297 288 129 182 176 175 205 242 218 256 331 172 165 158 155 156 152 151 147 135 139 125 121 126 129 132 140 139 136 136 138 138 109 104 101 96
166 185 220 267 253 240 275 309 240 324 311 250 283 268 255 232 193 166 225 207 199 117 328 321 282 165 162 147 145 141 134 132 132 131 131 132 131 130 124 128 127 122 124 96 98 88 68 101 107
208 241 237 273 288 309 284 297 307 246 247 249 251 225 227 238 224 203 209 185 182 154 183 240 247 190 162 158 159 150 149 151 148 149 142 137 133 131 125 131 137 122 118 123 117 81 119 120 104
209 260 265 262 277 259 298 279 257 312 314 319 321 358 351 316 294 258 223 193 187 165 200 213 241 357 275 169 166 156 160 162 162 150 152 144 146 145 136 135 132 122 123 137 96 97 104 110 110
260 275 283 276 261 270 254 289 53 326 336 39 33 7 3 4 343 354 297 204 198 186 203 173 153 191 207 247 173 164 165 165 161 155 160 154 152 148 147 143 140 140 163 122 131 134 132 123 126
278 306 331 332 276 200 181 334 22 302 2 35 10 359 3 4 2 14 344 328 220 192 162 151 161 192 212 276 221 199 165 164 171 168 162 158 154 156 149 151 150 171 150 126 106 91 118 111 112
352 46 11 306 142 260 101 263 12 336 51 14 360 350 0 3 346 345 343 350 291 181 177 166 176 164 152 196 194 193 190 172 186 164 166 166 158 160 146 151 165 170 135 128 109 110 104 114 131
359 301 288 312 309 175 156 284 335 337 39 9 353 355 353 349 353 343 344 340 340 195 191 170 170 170 171 155 189 195 195 184 185 167 147 164 161 159 147 151 155 151 132 123 131 85 127 129 116
253 291 282 253 292 345 78 178 322 355 46 357 339 343 333 329 348 330 334 330 340 231 213 134 118 155 165 162 173 194 166 154 162 151 124 120 154 149 140 135 140 133 119 122 123 119 66 128 137
209 240 262 265 264 333 172 150 307 320 28 8 340 333 330 322 333 332 330 330 337 1 120 132 130 131 141 159 158 170 170 149 156 124 128 137 143 145 136 132 131 140 139 154 144 101 113 75 120
158 240 295 290 265 195 154 154 262 297 311 16 349 327 316 324 331 333 329 353 341 352 107 131 132 133 108 103 111 118 99 86 132 111 100 114 78 163 147 145 148 149 129 140 137 127 107 85 23
270 195 229 231 321 27 103 302 268 278 290 344 358 324 328 326 328 323 321 359 329 346 34 125 140 126 132 137 131 101 71 62 0 97 87 100 180 121 135 138 141 144 136 151 149 139 132 136 90
281 210 239 270 41 247 65 283 302 321 322 346 327 345 336 335 327 308 312 326 308 357 54 116 124 116 126 140 119 128 123 95 354 20 45 64 46 36 100 116 132 138 133 138 146 141 132 128 135
238 227 263 218 182 53 331 65 264 344 333 342 348 342 333 330 332 324 303 296 288 305 138 112 104 96 88 89 138 133 113 117 135 108 64 58 57 21 52 74 74 88 107 128 136 127 122 115 114
296 19 25 54 81 38 284 125 290 340 321 342 342 338 333 338 342 345 306 264 45 88 99 103 111 88 65 73 91 127 129 136 127 121 112 87 54 24 42 48 77 75 76 65 61 81 84 78 66
43 48 344 10 14 219 322 55 248 335 58 340 333 337 336 352 356 1 17 62 75 99 97 91 102 96 65 78 84 102 129 140 142 144 141 134 123 112 77 72 42 79 76 72 91 81 74 82 91
339 135 152 186 175 264 327 299 275 108 106 323 331 346 356 1 4 11 12 47 51 67 69 81 81 82 79 61 71 73 73 87 117 119 132 128 140 142 126 99 92 73 87 63 71 72 57 67 68
174 55 162 103 25 53 247 258 302 110 145 350 5 9 16 13 8 7 12 33 40 57 65 77 78 79 87 92 87 89 89 99 100 92 102 124 130 145 134 141 139 132 105 107 76 80 105 87 12
155 163 55 10 94 280 293 259 237 278 100 43 9 5 19 35 19 9 18 37 49 55 68 71 73 74 72 80 83 86 84 88 94 105 100 99 135 138 139 139 136 135 135 133 139 174 190 189 188
138 257 128 129 140 164 273 265 209 199 140 148 193 27 23 56 42 23 27 33 47 59 65 69 68 71 63 65 66 74 75 71 69 63 82 86 88 111 129 140 128 137 162 175 172 172 168 162 152
189 189 139 122 237 171 148 275 151 171 137 153 170 178 95 77 63 43 45 58 65 63 59 68 80 82 80 79 85 83 86 84 82 82 80 92 102 96 102 109 111 112 101 100 112 134 138 139 140